Walla Walla, WA

12:47 AM PDT on April 30, 2017 (GMT -0700)
Walla Walla Regional

Weather History for KALW - August, 2014

Change the Weather History Date:

Friday, August 29, 2014

  Actual Average Record
Temperature  
Mean Temperature 76 °F 71 °F  
Max Temperature 87 °F 84 °F 102 °F (1967)
Min Temperature 64 °F 58 °F 45 °F (1980)
Degree Days  
Heating Degree Days 0 1  
Month to date heating degree days 2  
Since 1 June heating degree days 70  
Since 1 July heating degree days 8  
Cooling Degree Days 10 7  
Month to date cooling degree days 282  
Year to date cooling degree days 741  
Since 1 June cooling degree days 706  
Growing Degree Days 26 (Base 50)    
Moisture  
Dew Point 45 °F    
Average Humidity 35    
Maximum Humidity 52    
Minimum Humidity 17    
Precipitation  
Precipitation 0.00 in 0.02 in 0.66 in (1977)
Month to date precipitation 0.53  
Year to date precipitation 13.04  
Snow  
Snow 0.00 in 0.00 in 0.00 in (2002)
Month to date snowfall 0.0  
Year to date snowfall 6.0  
Since 1 July snowfall 0.0  
Snow Depth -    
Sea Level Pressure  
Sea Level Pressure 29.88 in    
Wind  
Wind Speed 9 mph (SSW)    
Max Wind Speed 15 mph    
Max Gust Speed 21 mph    
Visibility 10 miles    
Events      
T = Trace of Precipitation, MM = Missing Value Source: NWS Daily Summary

Daily Weather History Graph

Daily Weather History Graph

Search for Another Location

Airport or City:

Trip Planner

Search our weather history database for the weather conditions in past years. The results will help you decide how hot, cold, wet, or windy it might be!

Date:

Astronomy

Aug. 29, 2014 Rise Set
Actual Time 6:10 AM PDT 7:37 PM PDT
Civil Twilight 5:38 AM PDT 8:08 PM PDT
Nautical Twilight 5:01 AM PDT 8:45 PM PDT
Astronomical Twilight 4:20 AM PDT 9:26 PM PDT
Moon 10:19 AM PDT (8/29) 9:21 PM PDT (8/29)
Length of Visible Light 14h 29m
Length of Day
13h 26m
Waxing Crescent, 16% of the Moon is Illuminated
Aug 29
Waxing Crescent
Sep 2
First Quarter
Sep 8
Full
Sep 15
Last Quarter
Sep 23
New

Hourly Weather History & Observations

Time (PDT) Temp. Dew Point Humidity Pressure Visibility Wind Dir Wind Speed Gust Speed Precip Events Conditions
12:53 AM 70.0 °F 44.1 °F 39% 29.95 in 10.0 mi South 9.2 mph - N/A   Clear
1:53 AM 69.1 °F 45.0 °F 42% 29.94 in 10.0 mi South 8.1 mph - N/A   Clear
2:53 AM 69.1 °F 44.1 °F 40% 29.94 in 10.0 mi South 9.2 mph - N/A   Clear
3:53 AM 68.0 °F 46.9 °F 47% 29.92 in 10.0 mi SSE 6.9 mph - N/A   Clear
4:53 AM 64.9 °F 46.9 °F 52% 29.92 in 10.0 mi South 5.8 mph - N/A   Clear
5:53 AM 66.0 °F 46.0 °F 48% 29.92 in 10.0 mi SSE 4.6 mph - N/A   Clear
6:53 AM 66.0 °F 46.0 °F 48% 29.93 in 10.0 mi SSE 4.6 mph - N/A   Clear
8:53 AM 73.9 °F 48.0 °F 40% 29.92 in 10.0 mi SSW 10.4 mph - N/A   Clear
9:53 AM 78.1 °F 46.9 °F 33% 29.91 in 10.0 mi SW 10.4 mph - N/A   Clear
10:53 AM 81.0 °F 44.1 °F 27% 29.90 in 10.0 mi WSW 12.7 mph - N/A   Clear
11:53 AM 82.0 °F 46.9 °F 29% 29.89 in 10.0 mi SSW 9.2 mph 20.7 mph N/A   Clear
1:53 PM 84.9 °F 48.0 °F 28% 29.83 in 10.0 mi SW 6.9 mph - N/A   Clear
2:53 PM 87.1 °F 44.1 °F 22% 29.81 in 10.0 mi WSW 13.8 mph - N/A   Clear
3:53 PM 87.1 °F 39.9 °F 19% 29.81 in 10.0 mi WSW 11.5 mph - N/A   Clear
4:53 PM 87.1 °F 37.0 °F 17% 29.81 in 10.0 mi West 13.8 mph 20.7 mph N/A   Clear
5:53 PM 84.9 °F 37.9 °F 19% 29.81 in 10.0 mi WSW 15.0 mph - N/A   Clear
6:53 PM 82.0 °F 42.1 °F 24% 29.81 in 10.0 mi WSW 11.5 mph - N/A   Clear
8:53 PM 73.9 °F 45.0 °F 35% 29.86 in 10.0 mi WSW 10.4 mph - N/A   Clear
9:53 PM 71.1 °F 46.0 °F 41% 29.87 in 10.0 mi WSW 6.9 mph - N/A   Clear
10:53 PM 68.0 °F 46.0 °F 45% 29.88 in 10.0 mi SSW 8.1 mph - N/A   Clear
11:53 PM 66.9 °F 46.9 °F 49% 29.90 in 10.0 mi South 6.9 mph - N/A   Clear